Location: *
(55.6049°N, 37.8015°E)
Time: 01:13:54
(UTC+00:00)

Daily predictions for brighter satellites

Satellite Brightness Start Highest point End
(mag) Time Altitude Azimuth Time Altitude Azimuth Time Altitude Azimuth
SL-08 R/B 4.5 00:06:37 40° N 00:06:37 40° N 00:09:52 10° NNW
Meteor 2-8 Rocket 4.4 00:11:59 77° E 00:11:59 77° E 00:18:09 10° NNE
CENTAUR R/B 3.1 00:06:27 10° NW 00:14:07 78° NE 00:22:52 10° ESE
Resurs 1-4 Rocket 3.1 00:12:38 10° N 00:16:24 39° NNW 00:16:24 39° NNW
NPP 4.3 00:13:45 10° N 00:17:50 45° NNW 00:17:50 45° NNW
Cosmos 1244 Rocket 4.4 00:12:48 10° NNW 00:18:42 80° NW 00:18:42 80° NW
Meteor 1-27 4.3 00:24:02 66° ESE 00:24:09 67° E 00:29:42 10° NNE
Iridium 4 Rocket 4.0 00:29:53 48° ENE 00:29:53 48° ENE 00:33:31 10° NNE
Cosmos 2360 Rocket 3.1 00:27:10 10° NW 00:40:22 - SSE 00:30:27 36° NW
Cosmos 1048 Rocket 4.4 00:37:10 55° NNW 00:37:10 55° NNW 00:41:38 10° NNE
USA 229 DEB 3.8 00:35:28 54° WNW 00:36:40 61° NNW 00:43:44 10° NE
USA 229 3.8 00:35:33 54° WNW 00:36:45 62° NNW 00:43:49 10° NE
ADEOS II 2.4 00:32:03 10° NNE 00:36:33 56° NNW 00:36:33 56° NNW
IDEFIX/ARIANE 42P 2.5 00:33:34 10° NNE 00:38:49 77° ESE 00:38:53 77° ESE
Cosmos 1869 4.5 00:40:37 41° NNE 00:40:37 41° NNE 00:43:23 10° NNE
USA 234 4.1 00:33:00 10° SE 00:36:44 33° SSE 00:36:44 33° SSE
Cosmos 2237 Rocket 4.0 00:34:23 10° NNW 00:39:25 31° NE 00:44:25 10° E
Cosmos 2333 4.4 00:34:19 10° NNW 00:40:07 73° NE 00:45:54 10° SE
ADEOS Rocket 3.2 00:43:11 46° NW 00:43:11 46° NW 00:47:14 10° NNW
IRS-1D 3.9 00:39:06 10° N 00:43:14 52° NNW 00:43:14 52° NNW
NOSS 3-2 (C) 3.9 00:37:34 10° NW 00:44:45 89° SW 00:53:04 10° SE
Meteor 2-15 Rocket 4.4 00:45:03 53° S 00:46:35 79° E 00:52:44 10° NNE
IRAS Rocket 4.0 00:46:59 80° SW 00:47:10 81° WSW 00:52:42 10° NNW
Cosmos 1553 Rocket 4.0 00:48:03 46° S 00:50:02 78° E 00:56:16 10° NNE
SL-08 ROCKET BODY 4.3 00:45:13 10° NNW 00:51:21 74° W 00:52:16 63° SSW
ISS -0.8 00:54:44 11° ESE 00:54:44 11° ESE 00:54:58 10° ESE
CZ-2C R/B 4.2 00:49:22 10° NNE 00:52:55 33° E 00:53:28 31° ESE
NOSS 3-1 (A) 3.8 00:52:05 48° WNW 00:53:24 57° NNW 01:00:24 10° NE
Cosmos-2242 4.3 00:56:17 32° NNW 00:56:17 32° NNW 00:59:01 10° N
Lacrosse 5 3.2 01:00:54 26° SSE 01:00:54 26° SSE 01:03:14 10° SE
Cosmos 1833 Rocket 3.8 00:58:07 30° NW 00:58:49 31° NW 01:03:47 10° NNE
MSX 3.8 00:53:41 10° NNE 00:59:28 81° ESE 01:01:06 49° S
Cosmos 2333 Rocket 2.2 00:55:28 10° NW 01:01:17 81° NE 01:07:04 10° SE
Cosmos 2082 Rocket 2.8 01:00:46 41° NW 01:01:17 42° NW 01:06:44 10° NNE
ARGOS Delta rocket 4.0 00:56:20 10° N 01:01:52 79° WNW 01:02:30 68° SW
SL-16 R/B 4.3 00:57:19 10° NNW 01:01:55 24° NNE 01:06:30 10° E
IRS-P3 Rocket 4.5 00:57:14 10° NNE 01:02:26 66° WNW 01:02:36 65° W
Cosmos 1992 Rocket 4.1 00:59:17 10° NNW 01:11:35 - SSE 01:03:40 59° WNW
NOSS 2-2 (D) 3.5 01:09:32 66° ENE 01:09:32 66° ENE 01:13:16 10° NE
Cosmos 2219 Rocket 2.1 01:10:49 10° NW 01:16:32 87° NE 01:22:14 10° SSE
Cosmos 1805 Rocket 3.9 01:12:04 10° N 01:16:32 66° ENE 01:20:59 10° SSE
Cosmos 2221 2.4 01:16:36 72° S 01:17:03 86° E 01:21:25 10° NNE
IRS-1C 4.1 01:12:32 10° NNE 01:17:49 63° WNW 01:18:41 54° WSW
Cosmos 1743 Rocket 3.4 01:13:35 10° NNW 01:18:05 74° W 01:18:06 74° W
Aureole 3 Rocket 3.9 01:18:16 43° WNW 01:18:16 43° WNW 01:23:45 10° N
SL-27 R/B 2.9 01:20:23 60° NNE 01:20:23 60° NNE 01:23:26 10° NNE
CZ-2C R/B 2.9 01:15:08 10° NNE 01:19:52 55° E 01:22:38 23° S
Cosmos 1269 Rocket 3.9 01:20:06 56° SW 01:21:08 74° WNW 01:26:29 10° NNE
CZ-2D R/B 3.3 01:20:00 10° NNE 01:24:10 75° WNW 01:24:14 74° W
USA 238 DEB 3.9 01:18:00 10° NW 01:24:57 55° SW 01:32:14 10° SSE
USA 238 3.9 01:18:06 10° NW 01:25:04 56° SW 01:32:21 10° SSE
CZ-2D R/B 3.7 01:21:44 10° N 01:25:24 19° NW 01:25:31 19° NW
Landsat 5 3.5 01:22:16 10° SSE 01:26:08 70° ENE 01:30:06 10° NNW
ATLAS 3B R/B 3.1 01:22:25 10° NW 01:29:13 63° NNE 01:36:19 10° ESE
BREEZE-M DEB (TANK) 3.4 01:28:59 41° SSW 01:29:42 45° S 01:39:30 10° ESE
COSMO-SKYMED 1 4.5 01:26:24 10° ESE 01:30:13 31° ENE 01:34:05 10° N
GEOS 3 Rocket 3.7 01:25:27 10° NE 01:30:49 71° NW 01:32:31 44° WSW
COSMOS 2428 2.6 01:26:49 10° NW 01:32:35 85° WSW 01:38:19 10° SSE
Sich 1 3.2 01:29:06 10° N 01:33:34 73° ENE 01:37:57 10° SSE
CZ-4B R/B 3.8 01:30:54 10° N 01:35:49 45° WNW 01:36:39 42° W
CZ-4B R/B 4.0 01:34:56 10° ESE 01:37:17 21° ENE 01:39:39 10° NNE
Cosmos 1745 Rocket 4.2 01:32:26 10° NNW 01:38:28 49° W 01:41:57 25° SSW
Cosmos 1606 3.0 01:37:55 27° S 01:39:54 66° E 01:43:46 10° NNE
S3M 3.9 01:36:31 27° SSW 01:40:02 72° WNW 01:46:17 10° N
Cosmos 1666 Rocket 4.2 01:35:59 10° N 01:40:18 56° ENE 01:44:38 10° SSE
Cosmos 2344 3.8 01:36:41 23° SSW 01:41:31 68° SE 01:49:45 10° NE
ATLAS 5 CENTAUR R/B 4.0 01:38:54 10° SSE 01:41:32 17° ESE 01:44:24 10° ENE
ARIANE 5 R/B 2.7 01:36:54 10° N 01:41:45 50° WNW 01:43:01 40° WSW
NOSS 3-1 (C) 4.5 01:40:38 21° WNW 01:44:36 45° N 01:51:44 10° ENE
SeaSat 1 2.7 01:40:01 10° SE 01:44:55 70° NE 01:49:51 10° NNW
USA 267 3.2 01:38:29 10° ENE 01:45:04 79° SSE 01:48:36 30° WSW
MOS 1 Rocket 4.4 01:40:54 10° SE 01:45:11 45° ENE 01:49:43 10° N
Cosmos 1709 Rocket 4.0 01:44:01 10° NNW 01:50:20 64° W 01:56:37 10° S
FENGYUN 3A 4.2 01:44:57 10° NNE 01:50:23 61° ESE 01:55:46 10° S
Meteor 1-25 Rocket 4.3 01:45:29 10° NNW 01:51:06 80° ENE 01:56:40 10° SSE
NOSS 0 Rocket 3.9 01:46:05 10° NW 01:52:18 87° NE 01:58:31 10° SE
Cosmos 2184 Rocket 4.5 01:46:12 10° N 01:52:30 64° ENE 01:58:49 10° SSE
Cosmos 2322 3.8 01:47:40 10° NW 01:53:08 48° WSW 01:58:32 10° S
Cosmos 1500 Rocket 4.2 01:49:13 10° NNW 01:52:45 35° WNW 01:52:45 35° WNW
NOSS 3-2 (A) 4.4 01:46:41 10° WNW 01:53:25 38° WSW 02:00:57 10° S
Resurs 1-4 Rocket 4.1 01:53:58 10° NNW 01:56:24 13° NW 01:57:29 13° NW
Cosmos 1602 4.3 01:54:09 10° N 01:58:05 60° ENE 02:01:57 10° SSE
NOSS 2-2 (C) 3.6 01:57:11 40° WNW 01:58:11 53° NNW 02:02:30 10° NE
CZ-4C R/B 2.9 01:57:24 25° S 01:59:09 58° WSW 02:02:38 10° NNW
Spot 4 Rocket 4.3 01:58:21 10° N 02:03:20 50° WNW 02:05:58 26° SW
CENTAUR R/B 3.4 01:57:16 10° NW 02:04:46 47° WSW 02:13:02 10° SSE
H-2A R/B 1.8 02:02:33 10° SSE 02:06:46 75° WSW 02:10:55 10° NNW
Cosmos 1151 Rocket 4.2 02:03:58 10° SSE 02:08:03 44° E 02:12:08 10° NNE
Meteor 1-4 Rocket 3.2 02:08:39 34° W 02:08:56 35° WNW 02:12:17 10° N
Iridium 4 Rocket 4.3 02:09:40 24° WNW 02:09:40 24° WNW 02:13:06 10° NNW
Cosmos 1833 4.1 02:06:30 21° SW 02:10:27 81° NW 02:16:08 10° NNE
NOSS 2-2 (E) 4.0 02:09:37 28° WNW 02:11:10 43° NNW 02:15:35 10° NE
Cosmos 1633 Rocket 3.0 02:07:09 10° NNW 02:11:36 88° E 02:15:59 10° S
Cosmos 1842 Rocket 4.3 02:11:09 29° W 02:12:08 33° WNW 02:16:05 10° N
Meteor 1-20 Rocket 4.2 02:08:43 10° NNW 02:14:24 70° W 02:20:07 10° S
ADEOS II 3.8 02:12:52 10° N 02:16:05 17° NW 02:17:30 15° WNW
Cosmos 2360 Rocket 4.3 02:22:23 - SSW 02:22:23 - SSW 02:12:08 10° NW
IDEFIX/ARIANE 42P 3.8 02:13:46 10° N 02:17:57 25° NW 02:19:41 21° W
Cosmos 2251 Rocket 3.5 02:13:22 14° SSW 02:17:58 81° WNW 02:23:24 10° NNE
SKYMED 2 3.8 02:13:46 10° SSE 02:18:06 75° ENE 02:22:29 10° NNW
COSMOS 2487 2.3 02:16:49 26° SW 02:18:34 73° WNW 02:22:01 10° NNE
Cosmos 614 Rocket 4.1 02:14:54 10° SSW 02:20:08 79° ESE 02:25:23 10° NNE
PAYLOAD A 4.3 02:15:19 10° N 02:20:26 52° WNW 02:24:55 14° SW
ALOS 2.2 02:17:17 10° NNE 02:21:59 82° WNW 02:26:40 10° SSW
CZ-2C R/B 4.4 02:17:04 10° SE 02:22:09 36° ENE 02:27:12 10° N
USA 234 4.4 02:19:09 10° SSW 02:23:29 18° SW 02:24:09 18° WSW
Cosmos 2237 Rocket 2.2 02:18:26 10° NW 02:24:11 88° WSW 02:29:52 10° SSE
CZ-2C R/B 3.6 02:23:49 10° N 02:27:18 32° WNW 02:28:51 23° WSW
ISS -2.2 02:27:42 20° SW 02:28:05 20° SSW 02:30:38 10° SSE
Cosmos 1933 3.3 02:24:09 10° SSW 02:28:11 84° WNW 02:32:17 10° N
CZ-4C R/B 3.0 02:25:49 10° SSW 02:30:45 51° SE 02:36:45 10° NE
Iridium 51 4.1 02:28:40 10° N 02:32:31 63° W 02:36:05 10° S
Meteor 1-31 Rocket 3.3 02:29:05 10° NNE 02:32:56 61° ESE 02:36:45 10° S
Cosmos 407 Rocket 3.9 02:29:44 10° SSW 02:34:50 64° ESE 02:39:56 10° NNE
CSL-04 DEB 4.2 02:31:46 10° SSE 02:35:42 77° WSW 02:39:39 10° NNW
PSLV R/B 3.9 02:31:53 10° N 02:36:06 47° WNW 02:40:18 10° SW
NOSS 3-4 (A) 4.2 02:30:49 10° SSW 02:36:31 52° SE 02:42:44 10° NE
NOSS 3-4 (C) 4.2 02:30:55 10° SSW 02:36:38 52° SE 02:42:50 10° NE
Lacrosse 5 3.5 02:40:09 15° WSW 02:40:22 15° SW 02:43:05 10° SSW
Cosmos 2333 Rocket 3.2 02:40:24 10° NW 02:44:59 25° WSW 02:49:35 10° SSW
GENESIS II 4.2 02:42:09 16° WSW 02:45:16 71° NW 02:49:15 10° NE
USA 276 3.7 02:43:47 13° SW 02:46:00 26° SSE 02:48:44 10° ESE
Cosmos 2082 Rocket 4.0 02:42:50 10° WNW 02:46:57 20° NNW 02:51:03 10° NNE
SL-16 R/B 2.7 02:41:28 10° NNW 02:47:10 63° NE 02:52:49 10° SE
Cosmos 2227 Rocket 4.3 02:43:08 10° SSE 02:47:58 30° ESE 02:52:50 10° NE
Cosmos 1328 Rocket 3.5 02:45:37 10° S 02:49:56 88° E 02:54:18 10° NNE
PSLV R/B 4.3 02:45:56 10° SSE 02:50:06 72° ENE 02:54:15 10° NNW
SJ-12 4.0 02:46:32 10° NNE 02:50:37 79° ESE 02:54:40 10° SSW
Cosmos 1515 Rocket 4.3 02:47:46 10° S 02:52:02 58° E 02:56:22 10° NNE
ATLAS 2AS CENTAUR R/B 3.8 02:44:25 10° SSW 02:52:03 54° SE 02:59:30 10° NE
Cosmos 2327 Rocket 4.4 02:47:19 10° NNW 02:53:27 79° W 02:59:32 10° S
Cosmos 1484 Rocket 3.0 02:51:14 10° N 02:54:47 43° WNW 02:58:19 10° SW
Cosmos 2221 4.2 02:53:27 13° W 02:55:15 17° WNW 02:58:05 10° NNW
SL-27 R/B 4.5 02:53:54 12° WNW 02:55:28 15° NW 02:57:39 10° N
Cosmos 1666 3.2 02:52:10 10° N 02:55:58 64° ENE 02:59:47 10° SSE
Cosmos 1470 Rocket 3.5 02:51:55 10° NNW 02:56:14 60° W 03:00:29 10° S
CZ-4B R/B 3.8 02:53:15 10° NNE 02:57:44 60° ESE 03:02:12 10° S
CZ-2C R/B 3.3 02:53:46 10° N 02:57:52 29° WNW 03:01:51 10° WSW
Cosmos 2315 Rocket 4.4 02:52:29 10° SW 02:58:19 42° WNW 03:04:12 10° N
Envisat 4.2 02:54:29 10° NNE 02:59:26 48° E 03:04:21 10° S
Cosmos 921 Rocket 4.4 02:55:28 10° NNW 02:59:45 43° ENE 03:04:04 10° SE
Cosmos 1295 Rocket 4.4 02:53:40 10° NNW 02:59:47 81° W 03:05:52 10° S
Cosmos 2219 Rocket 3.3 02:55:35 10° NW 02:59:51 22° WSW 03:04:06 10° SSW
Cosmos 1437 Rocket 2.8 02:57:15 10° SSW 03:01:18 71° WNW 03:05:18 10° N
deb Chang Zheng 4 4.4 02:58:18 10° NNE 03:02:32 55° ESE 03:06:46 10° S
Cosmos 2297 Rocket 3.5 02:57:38 10° S 03:02:57 44° ESE 03:08:18 10° NE
SAR-Lupe-1 4.3 03:01:32 10° SSE 03:05:07 77° ENE 03:08:44 10° NNW
COSMO-SKYMED 1 2.9 03:02:10 10° S 03:06:18 43° W 03:10:29 10° NNW
Cosmos 1689 Rocket 2.1 03:05:01 10° SSE 03:07:49 77° ENE 03:10:42 10° NNW
Cosmos 1980 4.0 03:03:30 10° NW 03:08:53 46° WSW 03:14:15 10° S
CZ-4B R/B 1.8 03:06:29 10° SSW 03:09:20 34° W 03:12:10 10° NNW
METEOR-M 4.3 03:04:35 10° N 03:09:46 51° WNW 03:14:55 10° SW
Sich 1 4.5 03:07:45 10° NW 03:10:42 18° W 03:13:38 10° SW
Cosmos 2074 Rocket 4.3 03:05:10 10° NNW 03:11:00 43° W 03:16:48 10° SSW
Cosmos 1782 2.8 03:07:07 10° SSW 03:11:01 57° WNW 03:14:57 10° N
Cosmos 1140 Rocket 3.5 03:07:14 10° SSW 03:12:27 82° WNW 03:17:40 10° NNE
Meteor 1-26 Rocket 4.3 03:07:25 10° SSW 03:13:11 67° WNW 03:19:10 10° NNE
Cosmos 1500 3.5 03:11:57 10° NNW 03:15:34 44° W 03:19:12 10° SSW
Cosmos 1606 4.3 03:13:19 10° WSW 03:16:02 18° WNW 03:18:44 10° NNW
COSMOS 2428 3.9 03:12:04 10° NW 03:16:07 20° W 03:20:10 10° SSW
Cosmos 1933 Rocket 3.7 03:12:14 10° NNW 03:16:38 57° W 03:21:01 10° S
Cosmos 2154 Rocket 4.1 03:12:25 10° NNW 03:18:29 55° W 03:24:33 10° SSW
OPS 8737 4.3 03:16:15 10° NW 03:19:11 64° SW 03:22:45 10° SE
ARIANE 5 R/B 4.4 03:17:33 10° NNW 03:19:51 13° NW 03:22:08 10° WNW
ATLAS 3B R/B 2.9 03:13:15 10° NW 03:20:00 56° SW 03:27:01 10° SSE
ERS-2 2.1 03:18:32 10° S 03:22:09 64° WSW 03:25:48 10° NNW
SeaSat 1 3.4 03:18:39 10° SSW 03:22:50 27° WSW 03:27:03 10° NW
MOS 1 Rocket 4.0 03:19:37 10° SSW 03:23:37 31° W 03:27:51 10° NNW
Cosmos 1023 Rocket 4.5 03:19:05 10° SW 03:24:15 67° WNW 03:29:24 10° NNE
ATLAS 5 CENTAUR R/B 1.7 03:21:10 10° SW 03:25:18 83° SE 03:30:08 10° NE
ADEOS 3.7 03:20:28 10° N 03:25:35 55° WNW 03:30:40 10° SW
Cosmos 2228 Rocket 3.9 03:21:30 10° S 03:26:01 61° E 03:30:31 10° NNE
Cosmos 909 Rocket 4.1 03:20:37 10° SW 03:27:00 73° NW 03:33:27 10° NE
USA 267 3.4 03:21:37 10° E 03:28:10 80° N 03:34:43 10° W
